Theta_e
292 293 293 293 294 294 293 293 294 295 296 296 296 296 296 296 296 295 293 293 292 291 291 289 287 288 288 291 293 295 296 297 289 283 285 284 282 282 283 283 283 283 283
292 291 291 291 292 292 291 291 292 292 293 293 293 293 292 292 293 292 291 290 289 287 287 286 285 285 284 286 287 287 289 290 290 284 281 281 281 281 282 281 280 281 281
289 289 289 289 289 289 289 290 291 291 290 291 290 290 289 289 289 288 287 286 285 285 284 284 283 283 282 283 283 283 284 284 286 284 280 280 280 280 280 280 280 280 279
288 287 287 287 287 287 288 288 288 289 288 288 288 288 288 287 287 286 285 284 284 283 283 283 282 282 281 281 281 281 282 282 282 281 279 278 279 279 278 278 278 279 277
286 285 285 286 286 286 286 286 287 287 287 287 287 286 286 286 285 284 284 283 283 283 283 284 284 284 284 283 281 280 281 280 280 279 278 278 277 277 276 276 276 276 277
283 283 284 284 284 284 284 284 285 285 286 286 285 285 285 285 286 286 284 282 282 281 280 280 281 282 284 285 285 284 282 280 279 279 277 276 275 276 276 275 274 274 275
282 282 282 282 282 282 282 283 282 283 283 283 283 283 283 284 285 284 283 281 280 280 279 279 278 278 279 280 281 281 281 282 281 278 276 276 275 275 274 274 273 273 273
281 281 282 282 281 281 281 281 281 281 281 281 282 282 282 283 284 283 282 280 279 279 279 278 278 278 279 278 278 277 277 278 277 276 276 275 275 276 275 274 273 272 273
280 280 281 281 281 280 280 280 280 280 280 280 281 281 281 282 284 283 281 279 278 278 279 279 280 280 281 281 278 277 276 276 278 279 279 279 278 278 277 274 273 271 272
279 279 280 280 280 279 279 279 279 280 279 280 279 280 280 281 284 283 281 280 278 278 279 279 280 280 281 279 277 277 275 274 274 274 274 274 274 274 276 275 273 270 270
279 279 279 279 279 279 279 279 278 278 278 277 277 278 278 278 282 283 282 280 279 278 278 278 279 281 281 280 279 277 276 275 273 272 273 273 273 272 273 273 273 272 270
276 276 276 276 278 278 277 277 276 276 276 275 275 276 276 277 281 282 283 281 281 279 278 278 278 281 280 280 278 279 280 274 272 272 271 272 272 272 272 271 271 271 272
274 272 272 274 276 276 276 276 275 275 275 274 275 275 274 276 277 281 282 282 282 278 278 278 280 280 280 279 279 279 273 273 272 271 272 271 272 272 269 269 269 267 266
270 270 270 272 272 273 275 275 275 274 274 274 275 275 273 274 274 275 278 277 278 278 278 275 277 278 278 277 274 275 273 273 272 272 272 271 269 269 269 269 268 268 267
270 269 270 271 271 271 272 273 274 274 275 274 274 274 273 273 275 278 278 276 277 277 272 273 273 273 273 272 272 272 272 271 270 271 270 270 270 268 269 268 266 265 266
269 269 270 270 270 271 271 272 277 280 281 281 282 279 277 279 282 283 283 283 283 282 275 275 274 272 272 273 273 273 272 270 271 271 270 269 268 269 269 268 266 265 265
269 270 269 269 269 269 270 270 270 274 280 282 284 284 284 284 284 284 284 284 284 283 278 277 275 274 274 272 272 271 270 271 268 269 268 268 268 267 267 267 267 265 265
262 264 267 267 268 268 268 269 268 269 270 274 278 280 280 280 280 281 282 283 280 277 275 274 273 273 272 272 272 270 269 268 268 268 267 267 266 266 266 266 266 265 265
263 263 264 264 265 266 266 266 267 266 266 267 270 276 273 276 277 277 277 271 271 274 275 274 274 272 271 268 268 267 266 266 266 265 265 264 264 264 264 264 264 262 261
259 260 262 262 262 263 264 264 264 264 265 265 267 269 269 272 272 271 268 264 264 265 264 264 264 263 263 263 263 263 263 263 263 263 263 263 263 263 263 263 262 262 261
257 258 260 259 261 264 267 268 266 265 267 271 271 268 276 270 271 268 262 261 261 262 261 261 261 261 261 261 260 261 260 261 261 261 261 262 261 261 262 261 260 259 258
256 256 256 257 260 262 264 264 264 265 267 266 268 267 269 263 262 261 260 259 259 258 258 258 260 260 260 259 260 259 259 259 260 260 259 259 259 259 258 258 257 258 257
256 257 257 257 258 259 260 259 260 263 262 260 260 259 258 258 257 257 258 257 256 256 256 255 256 256 257 256 256 257 257 259 260 259 258 259 258 258 257 257 257 256 257
255 256 257 256 258 258 259 259 259 259 259 259 258 258 258 257 257 256 255 255 255 255 255 254 255 255 257 257 257 256 256 256 258 258 257 257 258 258 258 257 258 258 258
255 256 256 256 256 257 258 258 258 257 257 257 256 255 254 255 255 256 256 255 255 256 257 257 256 256 257 258 258 259 259 261 260 260 259 258 258 259 259 259 259 260 260
256 257 256 256 256 256 256 256 255 255 255 255 256 256 256 256 257 257 257 257 257 259 260 261 261 261 262 262 262 264 265 267 267 266 263 261 260 260 260 261 261 261 261
Wind_Speed
9 8 9 9 10 9 12 12 9 8 10 6 10 8 9 7 10 7 11 9 11 8 6 10 7 5 4 3 4 4 2 2 4 2 2 2 3 3 2 2 2 1 2
9 8 10 11 10 9 10 13 7 11 9 8 10 10 8 11 8 10 10 8 9 10 7 8 6 5 6 6 5 5 4 3 3 5 2 2 1 2 1 3 2 2 2
10 10 11 10 11 11 12 11 10 9 11 9 10 9 9 10 10 9 9 9 8 10 7 7 7 7 6 5 5 4 3 3 3 4 4 1 1 1 1 1 2 3 3
10 11 10 10 10 10 10 10 9 9 10 9 9 9 9 10 10 9 9 10 9 8 8 8 7 6 7 6 5 5 5 6 5 6 3 2 1 2 1 1 2 1 3
10 11 10 10 9 9 10 10 9 10 9 8 9 9 9 8 7 7 8 9 9 10 10 10 9 10 12 8 4 4 4 4 3 4 3 1 1 1 1 2 2 4 2
10 10 9 8 8 8 8 7 7 8 8 8 10 10 10 7 13 14 10 8 8 8 9 8 8 8 12 16 16 14 8 2 3 2 1 2 2 1 1 2 2 2 3
10 9 8 9 9 7 7 8 8 9 9 10 10 10 10 9 14 13 12 7 7 8 7 7 6 5 7 7 11 13 14 16 12 2 3 2 1 1 0 1 1 2 3
9 9 8 8 9 8 8 9 9 7 8 7 9 9 9 8 13 14 13 8 8 8 6 6 6 5 5 5 6 8 8 9 8 5 5 3 2 2 1 1 1 4 5
9 8 7 9 9 8 8 7 6 6 8 8 7 8 7 6 11 10 8 6 7 7 5 5 5 4 7 7 5 6 5 5 5 8 6 4 1 1 3 2 2 2 2
7 7 7 7 7 7 6 5 4 5 5 5 7 6 6 5 10 9 6 3 5 4 3 4 7 5 8 7 5 4 3 2 3 3 3 3 4 4 5 4 2 2 2
5 5 7 6 6 5 5 3 4 5 5 5 6 5 5 4 5 7 6 2 2 3 2 2 0 5 6 7 6 3 1 3 2 2 3 3 2 2 1 1 4 4 3
5 6 5 5 4 4 6 4 4 4 5 5 5 3 2 3 5 4 4 4 4 2 1 1 0 1 1 1 2 0 2 4 0 2 3 3 3 2 1 2 3 5 6
4 5 3 4 4 3 3 4 3 4 4 2 2 1 1 2 2 5 4 2 3 1 1 2 4 3 3 1 1 4 3 1 1 2 3 3 2 3 4 4 4 4 6
4 3 2 2 2 3 2 2 3 2 2 1 1 1 1 2 2 2 2 1 2 1 1 2 2 1 1 1 1 1 2 2 2 3 3 2 3 2 2 2 3 2 3
2 1 1 1 1 1 0 2 2 3 3 3 2 2 2 2 2 2 2 2 3 2 2 1 1 1 2 2 2 3 3 2 3 2 4 5 4 3 3 2 2 1 4
1 1 1 1 1 1 2 3 4 6 5 6 6 4 2 6 8 8 7 7 7 5 2 1 1 2 3 4 4 4 4 4 3 4 4 4 5 5 5 3 2 4 6
3 4 2 2 2 2 1 1 2 3 3 6 7 7 8 10 10 10 10 9 8 7 2 3 3 3 5 4 4 4 4 4 2 4 4 6 6 6 5 6 5 5 6
3 4 3 3 2 2 3 3 2 2 2 3 4 4 7 7 8 8 8 8 3 1 2 3 4 4 4 4 5 4 4 5 4 5 5 5 5 5 6 6 5 6 6
3 2 2 2 3 3 2 2 3 2 2 3 3 1 6 8 7 5 6 1 2 2 3 3 3 4 4 4 5 4 4 5 5 5 4 4 5 4 6 6 6 6 6
3 5 2 1 1 1 2 2 2 2 2 1 2 1 1 2 0 1 1 1 1 2 3 3 4 4 4 4 4 4 4 5 5 5 5 5 5 5 6 6 5 6 5
3 3 4 2 1 1 1 1 1 1 1 2 3 3 8 1 4 4 3 3 3 3 3 3 3 4 3 3 3 4 4 6 5 5 5 5 4 5 5 5 6 5 5
2 2 1 1 1 2 2 1 1 2 2 2 2 3 7 3 1 1 1 2 3 3 3 3 4 4 4 4 4 4 5 5 5 4 5 4 4 5 4 4 5 5 5
3 3 3 3 3 3 3 3 3 3 3 3 2 3 3 3 3 3 4 4 4 4 3 3 4 4 3 3 3 4 5 6 5 4 5 5 4 5 4 5 5 5 4
3 3 4 3 3 4 4 4 3 4 4 3 3 3 3 3 3 4 4 4 4 4 3 3 3 5 5 5 3 3 4 5 5 5 6 5 6 5 5 4 5 6 6
4 4 5 4 4 4 4 4 5 4 4 4 4 3 3 3 3 4 3 3 4 4 5 4 3 5 6 8 7 8 7 9 7 7 4 5 7 7 6 5 6 6 7
5 6 5 5 6 5 5 5 5 5 4 4 4 4 3 4 3 4 4 4 4 4 5 4 5 7 7 6 7 10 10 10 9 10 6 4 5 6 5 7 9 6 7
Wind_Direction
36 39 48 50 55 55 62 62 50 59 74 44 77 64 75 57 71 98 78 81 90 79 86 91 71 67 48 54 46 55 55 67 113 118 106 99 148 189 185 210 221 279 321
44 45 56 53 56 65 65 65 59 54 59 60 59 71 63 72 63 64 78 84 101 103 88 91 84 88 68 56 59 60 62 54 117 127 140 163 187 217 265 287 311 316 290
47 40 41 51 54 47 56 45 46 63 59 55 73 71 72 75 77 87 97 97 81 80 82 91 95 88 84 80 73 81 71 62 77 129 128 118 103 0 254 290 315 324 318
61 52 38 38 45 52 50 57 57 58 63 58 63 72 69 76 82 83 91 87 90 90 83 74 75 84 87 84 76 68 75 82 81 91 85 114 88 70 41 350 318 317 316
64 66 48 35 39 51 51 53 52 61 67 69 73 69 74 79 82 93 89 94 90 83 75 79 79 85 89 88 97 75 80 87 98 99 100 121 86 70 27 5 299 325 308
65 66 72 64 48 47 56 52 64 69 78 78 69 69 67 72 91 95 97 97 100 104 98 85 73 62 79 79 78 74 65 74 85 95 95 110 118 55 32 12 325 328 330
71 52 53 62 68 47 52 62 56 56 61 64 62 67 70 78 87 89 82 79 87 86 87 87 78 66 67 78 81 77 62 62 60 70 98 62 89 58 357 315 310 287 265
64 70 62 54 61 53 56 55 47 51 59 64 61 63 70 72 87 90 87 86 87 82 81 90 105 102 92 100 93 77 64 57 50 54 71 90 83 163 113 264 296 297 281
48 44 54 68 67 59 50 58 54 57 61 62 64 61 67 71 80 86 84 76 85 82 84 87 88 82 77 76 79 84 81 67 47 47 52 45 358 263 177 162 305 336 304
37 45 41 59 76 80 76 55 53 62 65 76 74 68 62 68 80 80 85 95 103 102 88 76 95 98 80 67 70 78 78 48 42 19 3 353 334 304 295 219 184 251 274
49 48 50 48 64 58 70 68 84 80 77 67 71 59 60 46 63 82 78 79 118 134 99 109 75 91 77 74 73 76 95 142 37 9 342 329 324 305 285 254 221 216 222
56 61 54 41 50 58 69 58 60 86 88 68 75 67 40 29 42 40 64 103 131 117 141 207 194 236 163 134 111 14 36 127 89 328 324 322 316 307 298 283 267 252 245
68 55 47 53 54 59 91 89 77 57 65 74 74 52 338 6 5 7 15 76 132 125 161 210 216 242 280 0 273 311 121 174 274 298 292 279 261 295 309 289 266 266 263
95 91 67 78 53 36 49 76 84 104 137 169 155 238 296 326 307 276 262 305 294 146 97 37 6 357 348 333 340 297 262 252 246 265 275 276 285 277 278 266 273 304 286
101 119 92 53 26 59 167 184 194 218 183 182 217 209 200 289 258 255 223 237 238 235 105 48 313 316 287 282 278 272 275 254 258 259 263 275 281 270 266 231 248 269 262
354 336 283 311 341 359 325 320 281 251 242 242 237 221 211 247 288 301 304 294 287 217 146 232 268 259 264 280 282 295 280 270 271 265 274 272 273 278 280 274 244 251 273
301 316 317 314 285 259 255 245 291 323 289 257 260 270 290 295 298 294 296 290 283 283 240 237 256 242 253 261 275 266 273 276 274 273 274 279 280 277 273 276 276 265 275
323 303 285 275 257 265 253 260 271 283 312 328 1 358 2 356 336 323 313 307 298 7 237 249 273 274 278 279 274 267 271 277 273 274 277 278 275 275 284 279 274 273 282
323 292 260 256 248 244 247 250 239 234 255 269 313 343 19 343 330 355 19 40 291 297 303 293 298 306 296 284 277 282 283 287 287 297 284 281 283 274 271 265 274 264 270
326 305 290 276 307 282 224 217 204 186 202 219 256 226 243 238 350 335 24 345 322 304 322 313 310 305 301 304 300 297 292 288 286 275 270 272 272 268 273 271 272 279 271
320 326 339 358 7 321 280 321 306 283 293 327 349 354 337 349 353 7 355 354 338 321 304 286 282 276 271 274 276 277 270 276 275 277 283 285 288 285 278 282 286 279 282
324 318 356 40 3 39 27 29 25 9 10 9 18 17 29 62 51 338 307 303 302 289 289 288 293 294 300 298 300 292 287 288 294 287 286 279 284 283 287 286 292 287 285
359 17 24 20 24 35 50 39 45 47 53 44 30 27 22 22 6 353 343 338 336 332 335 322 308 308 308 294 283 272 278 280 281 288 289 288 280 281 276 278 278 282 272
44 49 55 44 44 51 56 54 55 57 62 56 43 37 28 11 6 352 341 333 331 327 321 319 305 298 303 302 288 271 259 263 266 268 259 271 282 289 286 279 278 276 278
45 48 48 44 45 46 52 46 49 44 42 36 28 22 356 359 2 353 340 332 322 323 325 319 310 305 301 300 294 291 277 282 271 264 254 252 265 276 270 273 274 276 267
43 49 46 41 44 41 43 44 37 31 27 18 16 12 5 357 346 339 335 335 332 326 327 323 324 322 313 302 297 303 302 305 288 259 230 234 255 263 258 261 266 266 267